[[{"header":{"parameterUnit":"m.s-1","parameterCategory":1,"la1":30.2991,"la2":30.254,"lo1":-89.0895,"lo2":-89.0444,"dy":0.0017,"dx":0.0017,"nx":28,"ny":28,"refTime":"2026-02-16T09:00:00:Z","depth":0,"parameterNumber":2,"parameterNumberName":"U-component_of_WINDS"},"data":[0,0,0,0,0,0,0,0,0,0,0,0,0,0,0,0,0,0,0,0,0,0,0,0,0,0,0,0,0,0,0,0,0,0,0,0,0,0,0,0,0,0,0,0,0,0,0,0,0,0,0,0,0,0,0,0,0,0,-2.0723,-2.0724,0,-2.0805,-2.0805,-2.0806,-2.0848,-2.0848,-2.0848,-2.0848,-2.0933,-2.0935,-2.0938,0,0,0,0,0,0,0,0,0,0,0,0,0,-2.0606,-2.0608,-2.0723,-2.0724,-2.0725,-2.0804,-2.0806,-2.0807,-2.0848,-2.0848,-2.0848,-2.0848,-2.0933,-2.0935,-2.0938,0,0,0,0,0,0,0,0,0,0,0,0,0,-2.0669,-2.0608,-2.0723,-2.0755,-2.0758,-2.0804,-2.0806,-2.0807,-2.0848,-2.0848,-2.0848,-2.0848,-2.0932,-2.0935,-2.0938,-2.0959,0,0,-2.0949,-2.095,0,0,0,0,0,0,0,0,-2.0665,-2.0673,-2.0749,-2.0753,-2.0757,-2.0816,-2.0796,-2.0858,-2.0848,-2.0814,-2.0848,-2.0848,-2.0894,-2.0901,-2.0916,-2.0963,-2.0966,-2.0949,-2.0951,-2.0952,-2.0953,0,0,0,0,0,0,0,-2.0661,-2.067,-2.0755,-2.075,-2.0755,-2.0766,-2.0775,-2.0808,-2.0853,-2.0817,-2.082,-2.0829,-2.0897,-2.0913,-2.0918,-2.0968,-2.0949,-2.0952,-2.0954,-2.0955,-2.1038,-2.1038,0,0,0,0,0,0,-2.0651,-2.0666,-2.0753,-2.0758,-2.071,-2.0768,-2.0779,-2.0797,-2.0853,-2.0861,-2.0829,-2.0831,-2.0907,-2.0914,-2.0922,-2.095,-2.0952,-2.0956,-2.0958,-2.1038,-2.1038,-2.1038,0,0,0,0,0,0,-2.0648,-2.0658,-2.0749,-2.0713,-2.0725,-2.077,-2.0791,-2.0799,-2.0815,-2.0862,-2.087,-2.0837,-2.0907,-2.0917,-2.095,-2.0954,-2.0957,-2.096,-2.1037,-2.1038,-2.1038,-2.1007,0,0,0,0,0,0,-2.0645,-2.0657,-2.0664,-2.0713,-2.0727,-2.0774,-2.0791,-2.08,-2.082,-2.0823,-2.0872,-2.088,-2.0908,-2.0944,-2.0953,-2.0958,-2.0963,-2.1037,-2.1038,-2.1038,-2.1008,-2.1006,-2.1004,0,0,0,0,0,-2.064,-2.0652,-2.0664,-2.0674,-2.0737,-2.0775,-2.0783,-2.0815,-2.082,-2.0829,-2.0859,-2.0878,-2.0952,-2.0947,-2.0957,-2.0964,-2.1037,-2.1037,-2.1038,-2.1008,-2.1006,-2.1004,0,0,0,0,0,0,-2.0603,-2.0659,-2.0673,-2.07,-2.0732,-2.0781,-2.0792,-2.0811,-2.0843,-2.0844,-2.0883,-2.0894,-2.0923,-2.0947,-2.0941,-2.0988,-2.0997,-2.0999,-2.0971,-2.0969,-2.0968,-2.0961,-2.0966,0,0,0,0,0,-2.0598,-2.0623,-2.0671,-2.0691,-2.0706,-2.0747,-2.0764,-2.0786,-2.0821,-2.0835,-2.0868,-2.0902,-2.0933,-2.0953,-2.0984,-2.1012,-2.1024,-2.1022,-2.102,-2.1019,-2.102,-2.1038,-2.1038,-2.1039,-2.1039,-2.1039,0,0,-2.0587,-2.0621,-2.0635,-2.0684,-2.0711,-2.0738,-2.0758,-2.0784,-2.0805,-2.0839,-2.0872,-2.0898,-2.0939,-2.0969,-2.0985,-2.099,-2.1023,-2.1019,-2.1017,-2.102,-2.1039,-2.1039,-2.1038,-2.1039,-2.1039,-2.1039,0,0,-2.0582,-2.061,-2.063,-2.0657,-2.0699,-2.0726,-2.0731,-2.0778,-2.0796,-2.083,-2.0857,-2.0883,-2.0935,-2.0963,-2.0984,-2.0993,-2.1012,-2.1002,-2.0994,-2.1011,-2.1011,-2.1011,-2.1015,-2.1015,-2.1004,-2.1004,-2.1004,0,-2.0564,-2.0604,-2.0638,-2.0663,-2.0685,-2.0718,-2.074,-2.0765,-2.0815,-2.0829,-2.0835,-2.0903,-2.0933,-2.0971,-2.0974,-2.099,-2.0998,-2.0996,-2.1008,-2.1009,-2.1009,-2.1013,-2.1014,-2.1002,-2.1002,-2.1002,-2.1003,0,-2.058,-2.0607,-2.0619,-2.0666,-2.0689,-2.0712,-2.0752,-2.0771,-2.0792,-2.082,-2.0855,-2.0892,-2.0932,-2.0943,-2.0964,-2.0986,-2.0988,-2.1,-2.101,-2.1007,-2.1012,-2.1013,-2.1,-2.1001,-2.1001,-2.1001,0,0,-2.055,-2.0618,-2.0621,-2.0644,-2.0693,-2.0716,-2.0742,-2.0781,-2.0798,-2.0832,-2.0855,-2.09,-2.0913,-2.0937,-2.0962,-2.0977,-2.0983,-2.0988,-2.099,-2.0986,-2.1011,-2.1,-2.1001,-2.0996,-2.0997,-2.0997,-2.1007,0,-2.0552,-2.0599,-2.0632,-2.0666,-2.0693,-2.0727,-2.075,-2.0783,-2.081,-2.0838,-2.0869,-2.09,-2.0914,-2.0929,-2.0946,-2.0978,-2.0988,-2.0978,-2.1019,-2.102,-2.1007,-2.1004,-2.0992,-2.1,-2.1009,-2.101,-2.101,0,-2.0559,-2.0592,-2.0629,-2.0677,-2.069,-2.071,-2.0749,-2.0775,-2.0815,-2.0834,-2.0862,-2.0888,-2.0919,-2.0926,-2.097,-2.0963,-2.0982,-2.1001,-2.1003,-2.1007,-2.1014,-2.1008,-2.1003,-2.1004,-2.1013,-2.1013,-2.1012,0,-2.0534,-2.0588,-2.0617,-2.0636,-2.0693,-2.0706,-2.0731,-2.0771,-2.0793,-2.0829,-2.0844,-2.0882,-2.0903,-2.0933,-2.0969,-2.0972,-2.101,-2.1021,-2.1028,-2.1027,-2.1033,-2.1032,-2.1031,-2.1046,-2.1046,-2.1046,-2.1046,0,-2.0531,-2.0552,-2.0607,-2.0625,-2.0651,-2.069,-2.0715,-2.0743,-2.0779,-2.0804,-2.0836,-2.086,-2.0906,-2.0936,-2.0965,-2.0997,-2.1007,-2.1024,-2.1031,-2.102,-2.1018,-2.1033,-2.1033,-2.1047,-2.1046,-2.1046,-2.1046,0,-2.0506,-2.0544,-2.0578,-2.063,-2.0644,-2.0661,-2.0706,-2.0726,-2.0756,-2.0788,-2.0798,-2.0845,-2.0882,-2.0921,-2.0971,-2.0991,-2.1022,-2.1033,-2.1008,-2.1012,-2.1017,-2.1016,-2.1025,-2.1029,-2.1041,-2.1041,-2.1041,0,-2.0501,-2.0519,-2.0573,-2.0592,-2.0616,-2.0646,-2.0669,-2.071,-2.0733,-2.0781,-2.0796,-2.0835,-2.0868,-2.0926,-2.0966,-2.1005,-2.1017,-2.1017,-2.1022,-2.1012,-2.1017,-2.1015,-2.1017,-2.1015,-2.1014,-2.1014,-2.1014,0,-2.0489,-2.0507,-2.0539,-2.0577,-2.0604,-2.0637,-2.067,-2.0685,-2.0732,-2.0757,-2.0795,-2.0821,-2.0873,-2.0912,-2.0957,-2.0984,-2.1007,-2.1012,-2.1016,-2.1005,-2.099,-2.0998,-2.1003,-2.1012,-2.1012,-2.1012,-2.1012,-2.1012,-2.0474,-2.0492,-2.0533,-2.0568,-2.0598,-2.063,-2.0651,-2.0684,-2.0717,-2.0761,-2.0784,-2.0822,-2.0865,-2.0927,-2.0954,-2.0986,-2.0993,-2.0998,-2.0999,-2.1,-2.0997,-2.0986,-2.0994,-2.0995,-2.0995,-2.0995,-2.0995,0,-2.0463,-2.0492,-2.0524,-2.0571,-2.0599,-2.0619,-2.0658,-2.068,-2.0713,-2.0751,-2.0784,-2.0829,-2.0868,-2.0911,-2.0953,-2.097,-2.0982,-2.098,-2.0979,-2.0985,-2.0989,-2.0981,-2.097,-2.097,-2.097,-2.097,-2.097,-2.097,-2.0461,-2.0492,-2.0516,-2.0563,-2.0593,-2.063,-2.0651,-2.0681,-2.0711,-2.076,-2.0792,-2.0821,-2.0861,-2.0907,-2.0945,-2.0957,-2.0971,-2.0965,-2.098,-2.0983,-2.0984,-2.0986,-2.098,-2.0968,-2.0968,-2.0974,-2.0974,-2.0974]},{"header":{"parameterUnit":"m.s-1","parameterCategory":1,"la1":30.2991,"la2":30.254,"lo1":-89.0895,"lo2":-89.0444,"dy":0.0017,"dx":0.0017,"nx":28,"ny":28,"refTime":"2026-02-16T09:00:00:Z","depth":0,"parameterNumber":3,"parameterNumberName":"V-component_of_WINDS"},"data":[0,0,0,0,0,0,0,0,0,0,0,0,0,0,0,0,0,0,0,0,0,0,0,0,0,0,0,0,0,0,0,0,0,0,0,0,0,0,0,0,0,0,0,0,0,0,0,0,0,0,0,0,0,0,0,0,0,0,1.3411,1.3412,0,1.3476,1.3477,1.3477,1.3601,1.3604,1.3606,1.3608,1.3674,1.3674,1.3673,0,0,0,0,0,0,0,0,0,0,0,0,0,1.3394,1.3394,1.3411,1.3412,1.3413,1.3476,1.3477,1.3478,1.3601,1.3604,1.3607,1.3609,1.3674,1.3674,1.3673,0,0,0,0,0,0,0,0,0,0,0,0,0,1.3424,1.3394,1.3411,1.3482,1.3489,1.3476,1.3477,1.3478,1.36,1.3604,1.3607,1.3611,1.3674,1.3674,1.3673,1.3596,0,0,1.3671,1.367,0,0,0,0,0,0,0,0,1.3423,1.3425,1.347,1.3477,1.3485,1.3534,1.3495,1.3517,1.3599,1.3558,1.3608,1.3613,1.3624,1.3628,1.3632,1.3599,1.3602,1.3671,1.367,1.367,1.367,0,0,0,0,0,0,0,1.342,1.3423,1.3437,1.3471,1.348,1.351,1.3519,1.35,1.357,1.3562,1.3571,1.3577,1.3629,1.3633,1.3635,1.3603,1.3671,1.367,1.3669,1.3669,1.3513,1.3509,0,0,0,0,0,0,1.3408,1.342,1.3435,1.3439,1.3462,1.3508,1.3517,1.3515,1.3571,1.3583,1.3574,1.3582,1.3632,1.3635,1.3637,1.3554,1.367,1.3669,1.3669,1.3516,1.3512,1.3508,0,0,0,0,0,0,1.3407,1.3408,1.3432,1.3432,1.3437,1.3504,1.35,1.3514,1.3518,1.358,1.3593,1.3564,1.3635,1.3639,1.3606,1.3557,1.3669,1.3668,1.3521,1.3515,1.351,1.3383,0,0,0,0,0,0,1.3406,1.3407,1.3378,1.343,1.3437,1.3399,1.3497,1.3513,1.3516,1.3528,1.3575,1.3586,1.3638,1.3606,1.3605,1.3558,1.3667,1.3525,1.3518,1.3511,1.3392,1.3374,1.3358,0,0,0,0,0,1.3405,1.3339,1.3376,1.3377,1.3402,1.3396,1.3399,1.3462,1.3512,1.3484,1.3524,1.3584,1.3562,1.3602,1.3602,1.3554,1.3529,1.352,1.3512,1.3399,1.3377,1.3359,0,0,0,0,0,0,1.3278,1.3347,1.3389,1.3338,1.336,1.3417,1.3383,1.3436,1.3444,1.3455,1.3531,1.3541,1.3499,1.3523,1.3566,1.3484,1.3555,1.3546,1.347,1.3449,1.3433,1.3429,1.3667,0,0,0,0,0,1.3245,1.3234,1.3294,1.3243,1.3252,1.3315,1.3315,1.3361,1.3387,1.3397,1.3435,1.3457,1.3457,1.3454,1.3456,1.3395,1.3409,1.3362,1.3346,1.3332,1.3324,1.3296,1.3277,1.348,1.348,1.3481,0,0,1.3175,1.3211,1.3199,1.3219,1.3242,1.3229,1.3322,1.3305,1.3297,1.3394,1.3367,1.3395,1.3426,1.3379,1.3361,1.3398,1.327,1.3321,1.3309,1.3309,1.3286,1.3267,1.3249,1.3475,1.3476,1.3477,0,0,1.3042,1.3067,1.3029,1.305,1.3083,1.3126,1.3116,1.3165,1.3188,1.3161,1.3235,1.3226,1.3222,1.3242,1.3251,1.3127,1.3184,1.3125,1.3038,1.3011,1.2995,1.2981,1.2939,1.2923,1.3117,1.3116,1.3116,0,1.2951,1.2935,1.3002,1.298,1.2988,1.3076,1.3039,1.3056,1.3087,1.3091,1.3132,1.313,1.3157,1.3118,1.3088,1.3091,1.3085,1.3121,1.2991,1.2978,1.2967,1.2928,1.2911,1.3109,1.311,1.3111,1.3111,0,1.2822,1.281,1.2775,1.2805,1.2808,1.2778,1.2842,1.2837,1.2883,1.2921,1.2894,1.2929,1.2941,1.2935,1.2979,1.2903,1.2926,1.2977,1.3052,1.2939,1.2904,1.2889,1.3099,1.3102,1.3104,1.3105,0,0,1.2612,1.268,1.2667,1.2682,1.2726,1.2718,1.2693,1.2705,1.2701,1.272,1.2702,1.2697,1.2746,1.2757,1.2804,1.2779,1.2682,1.2835,1.2837,1.2807,1.2603,1.2565,1.2546,1.2719,1.2716,1.2714,1.2601,0,1.2491,1.2452,1.2512,1.246,1.2451,1.2535,1.2513,1.2538,1.2573,1.2571,1.261,1.2606,1.267,1.2678,1.2657,1.2697,1.2642,1.2706,1.2704,1.2704,1.2696,1.2528,1.2487,1.2379,1.2588,1.2585,1.2584,0,1.2344,1.2357,1.2304,1.2353,1.2351,1.2331,1.2348,1.2344,1.2375,1.2402,1.2414,1.247,1.245,1.252,1.2495,1.2537,1.254,1.256,1.2557,1.2561,1.2638,1.2529,1.2346,1.233,1.2562,1.2564,1.2565,0,1.2199,1.2203,1.2173,1.2183,1.2239,1.2223,1.2245,1.2279,1.2283,1.2298,1.2302,1.2314,1.232,1.2329,1.2387,1.2432,1.2355,1.2429,1.2379,1.2378,1.2361,1.2362,1.2177,1.2358,1.2358,1.2359,1.2359,0,1.2059,1.2023,1.2109,1.209,1.2054,1.2124,1.2086,1.2117,1.2146,1.2136,1.2208,1.2197,1.2274,1.2271,1.2316,1.229,1.2292,1.2315,1.2328,1.2309,1.2307,1.2314,1.2324,1.2354,1.2355,1.2356,1.2357,0,1.1892,1.1947,1.192,1.1975,1.1988,1.1959,1.2007,1.1993,1.2032,1.2019,1.2019,1.2082,1.2083,1.2141,1.2154,1.2185,1.214,1.2166,1.213,1.2139,1.2087,1.2092,1.1902,1.1882,1.2073,1.2071,1.2069,0,1.18,1.1775,1.1828,1.1826,1.1845,1.1841,1.1846,1.1914,1.1916,1.195,1.1931,1.1938,1.1948,1.1945,1.1993,1.2003,1.2031,1.1964,1.2033,1.2017,1.2033,1.2035,1.2034,1.195,1.1947,1.1945,1.1944,0,1.1631,1.166,1.1665,1.1679,1.1683,1.1697,1.1716,1.171,1.1785,1.1784,1.1786,1.1793,1.1807,1.1813,1.1833,1.1857,1.1913,1.1921,1.1911,1.1893,1.1875,1.1887,1.2093,1.1926,1.1928,1.1929,1.193,1.1931,1.1501,1.1484,1.1519,1.1522,1.1543,1.1559,1.1549,1.1588,1.1591,1.1608,1.1647,1.1643,1.1676,1.1709,1.1728,1.1727,1.1761,1.1744,1.1741,1.1736,1.1727,1.1873,1.173,1.1731,1.1731,1.1732,1.1732,0,1.1339,1.1365,1.1367,1.1392,1.1394,1.1446,1.1471,1.147,1.1465,1.1491,1.1499,1.1502,1.1509,1.1557,1.157,1.156,1.1586,1.1561,1.1564,1.1569,1.1695,1.1704,1.154,1.154,1.154,1.154,1.154,1.154,1.1255,1.1229,1.1262,1.1248,1.1276,1.1273,1.1282,1.1298,1.1319,1.132,1.1326,1.1357,1.1393,1.1409,1.1418,1.1432,1.1435,1.1401,1.1424,1.1541,1.156,1.1578,1.1587,1.1401,1.14,1.1299,1.1298,1.1297]}]]